CW1662 Weather Reports


Display with metric or nautical units.
time (UTC)temp
F
wind
direction
speed
MPH
gust
MPH
rain 1hr
in
rain 24hr
in
rain mn
in
humidity
%
barometer
mb
20260508130828 58 254 3.0 8.0 0.00 0.00 0.00 59 1013.7
20260508130337 58 225 5.0 9.0 0.00 0.00 0.00 57 1013.7
20260508125841 57 216 4.0 9.0 0.00 0.00 0.00 58 1013.7
20260508125325 57 229 3.0 9.0 0.00 0.00 0.00 63 1013.8
20260508124829 56 178 3.0 6.0 0.00 0.00 0.00 63 1013.8
20260508124333 56 269 2.0 7.0 0.00 0.00 0.00 67 1013.9
20260508123838 55 213 3.0 7.0 0.00 0.00 0.00 69 1013.9
20260508123403 54 182 3.0 6.0 0.00 0.00 0.00 68 1013.8
20260508122826 53 196 4.0 6.0 0.00 0.00 0.00 70 1013.8
20260508122330 52 194 1.0 5.0 0.00 0.00 0.00 72 1013.9
20260508121854 52 233 1.0 2.0 0.00 0.00 0.00 75 1013.8
20260508121338 51 148 0.0 2.0 0.00 0.00 0.00 74 1013.9
20260508120843 51 72 0.0 2.0 0.00 0.00 0.00 74 1013.8
20260508120347 51 194 1.0 2.0 0.00 0.00 0.00 74 1013.8
20260508115835 52 194 1.0 2.0 0.00 0.00 0.00 73 1013.8
20260508115338 52 194 0.0 4.0 0.00 0.00 0.00 71 1013.8
20260508114843 52 194 1.0 5.0 0.00 0.00 0.00 71 1013.8
20260508114327 52 194 2.0 5.0 0.00 0.00 0.00 70 1013.7
20260508113852 51 187 2.0 5.0 0.00 0.00 0.00 71 1013.6
20260508113336 50 187 3.0 5.0 0.00 0.00 0.00 69 1013.6
20260508112840 51 196 2.0 4.0 0.00 0.00 0.00 69 1013.6
20260508112404 51 194 2.0 4.0 0.00 0.00 0.00 68 1013.5
20260508111827 50 194 0.0 1.0 0.00 0.00 0.00 69 1013.3
20260508111335 50 194 0.0 1.0 0.00 0.00 0.00 69 1013.5
20260508110839 49 194 0.0 1.0 0.00 0.00 0.00 71 1013.3
20260508110344 48 194 0.0 2.0 0.00 0.00 0.00 72 1013.4
20260508105833 47 194 0.0 2.0 0.00 0.00 0.00 74 1013.3
20260508105335 46 195 1.0 2.0 0.00 0.00 0.00 75 1013.1
20260508104902 46 344 1.0 2.0 0.00 0.00 0.00 76 1013.1
20260508104326 45 344 1.0 2.0 0.00 0.00 0.00 76 1013.1
20260508103831 44 344 1.0 2.0 0.00 0.00 0.00 77 1013.1
20260508103335 44 344 1.0 2.0 0.00 0.00 0.00 77 1012.9
20260508102840 44 344 1.0 2.0 0.00 0.00 0.00 77 1012.8
20260508102344 44 344 1.0 2.0 0.00 0.00 0.00 77 1012.6
20260508101828 44 344 1.0 2.0 0.00 0.00 0.00 77 1012.7
20260508101332 44 344 1.0 2.0 0.00 0.00 0.00 76 1012.6
20260508100837 44 344 1.0 1.0 0.00 0.00 0.00 76 1012.7
20260508100325 44 344 0.0 0.0 0.00 0.00 0.00 75 1012.7
20260508095852 44 344 0.0 1.0 0.00 0.00 0.00 75 1012.5
20260508095355 44 344 0.0 2.0 0.00 0.00 0.00 75 1012.5
20260508094838 44 344 1.0 2.0 0.00 0.00 0.00 75 1012.4
20260508094343 44 344 1.0 2.0 0.00 0.00 0.00 74 1012.3
20260508093828 44 344 1.0 2.0 0.00 0.00 0.00 74 1012.3
20260508093332 44 344 0.0 0.0 0.00 0.00 0.00 74 1012.3
20260508092857 44 344 0.0 0.0 0.00 0.00 0.00 74 1012.2
20260508092359 44 344 0.0 0.0 0.00 0.00 0.00 74 1012.2
20260508091843 44 344 0.0 0.0 0.00 0.00 0.00 74 1012.2
20260508091328 44 344 0.0 0.0 0.00 0.00 0.00 73 1012.2
20260508090832 44 344 0.0 0.0 0.00 0.00 0.00 73 1012.3
20260508090357 44 344 0.0 0.0 0.00 0.00 0.00 73 1012.4
20260508085840 44 344 0.0 0.0 0.00 0.00 0.00 73 1012.4
20260508085344 45 344 0.0 0.0 0.00 0.00 0.00 72 1012.4
20260508084832 45 344 0.0 0.0 0.00 0.00 0.00 72 1012.4
20260508084337 45 344 0.0 0.0 0.00 0.00 0.00 71 1012.3
20260508083842 45 344 0.0 0.0 0.00 0.00 0.00 71 1012.2
20260508083326 45 344 0.0 0.0 0.00 0.00 0.00 70 1012.3
20260508082829 46 344 0.0 0.0 0.00 0.00 0.00 69 1012.2
20260508082356 46 344 0.0 0.0 0.00 0.00 0.00 69 1012.0
20260508081840 46 344 0.0 1.0 0.00 0.00 0.00 68 1012.0
20260508081324 46 344 0.0 1.0 0.00 0.00 0.00 67 1012.1
20260508080829 47 344 1.0 1.0 0.00 0.00 0.00 66 1012.1
20260508080353 47 344 1.0 1.0 0.00 0.00 0.00 65 1012.1
20260508075837 48 344 0.0 1.0 0.00 0.00 0.00 64 1012.1
20260508075340 48 344 0.0 1.0 0.00 0.00 0.00 63 1012.2
20260508074829 49 344 0.0 1.0 0.00 0.00 0.00 61 1012.2
20260508074334 50 344 0.0 2.0 0.00 0.00 0.00 59 1012.1
20260508073838 51 344 0.0 2.0 0.00 0.00 0.00 58 1011.9
20260508073343 51 344 0.0 2.0 0.00 0.00 0.00 58 1011.9
20260508072828 51 344 0.0 2.0 0.00 0.00 0.00 58 1011.9
20260508072331 51 344 1.0 3.0 0.00 0.00 0.00 59 1011.8
20260508071837 50 344 2.0 4.0 0.00 0.00 0.00 59 1011.9
20260508071405 50 13 2.0 4.0 0.00 0.00 0.00 61 1011.9
20260508070829 50 342 1.0 3.0 0.00 0.00 0.00 62 1011.8
20260508070332 50 342 0.0 1.0 0.00 0.00 0.00 62 1011.9
20260508065840 50 342 0.0 2.0 0.00 0.00 0.00 62 1011.7
20260508065327 51 342 0.0 2.0 0.00 0.01 0.00 60 1011.8
20260508064832 52 342 1.0 3.0 0.00 0.01 0.00 59 1011.8
20260508064337 52 342 1.0 3.0 0.00 0.01 0.00 59 1011.9
20260508063840 52 342 1.0 3.0 0.00 0.01 0.00 59 1011.8
20260508063328 52 342 1.0 3.0 0.00 0.01 0.00 60 1011.8
20260508062832 52 342 2.0 3.0 0.00 0.01 0.00 60 1011.9
20260508062336 52 340 2.0 3.0 0.00 0.01 0.00 60 1011.8
20260508061900 52 340 1.0 3.0 0.00 0.01 0.00 60 1011.8
20260508061344 52 340 1.0 3.0 0.00 0.01 0.00 59 1011.8
20260508060828 52 340 1.0 3.0 0.00 0.01 0.00 59 1011.8
20260508060333 53 340 1.0 4.0 0.00 0.01 0.00 59 1011.7
20260508055838 52 340 2.0 4.0 0.00 0.01 0.00 60 1011.7
20260508055345 52 341 2.0 5.0 0.00 0.01 0.00 61 1011.7
20260508054849 53 341 2.0 6.0 0.00 0.01 0.00 60 1011.7
20260508054332 53 313 3.0 11.0 0.00 0.01 0.00 59 1011.5
20260508053837 54 305 4.0 11.0 0.00 0.01 0.00 58 1011.6
20260508053322 54 311 5.0 8.0 0.00 0.01 0.00 59 1011.6
20260508052829 54 321 6.0 10.0 0.00 0.01 0.00 58 1011.6
20260508052333 54 327 6.0 11.0 0.00 0.01 0.00 58 1011.7
20260508051837 54 321 7.0 11.0 0.00 0.01 0.00 58 1011.6
20260508051402 55 347 6.0 14.0 0.00 0.01 0.00 57 1011.5
20260508050825 55 319 6.0 12.0 0.00 0.01 0.00 56 1011.3
20260508050330 55 344 8.0 13.0 0.00 0.01 0.00 54 1011.2
20260508045854 55 319 7.0 13.0 0.00 0.01 0.00 55 1011.1
20260508045337 55 317 6.0 14.0 0.00 0.01 0.00 55 1011.1
20260508044824 55 324 6.0 14.0 0.00 0.01 0.00 54 1011.1
20260508044331 55 331 6.0 11.0 0.00 0.01 0.00 55 1011.0
20260508043839 55 308 6.0 11.0 0.00 0.01 0.00 54 1010.7
20260508043343 56 305 7.0 12.0 0.00 0.01 0.00 53 1010.7
20260508042827 56 315 7.0 13.0 0.00 0.01 0.00 53 1010.7
20260508042329 56 335 8.0 13.0 0.00 0.01 0.00 53 1010.5
20260508041837 55 317 7.0 11.0 0.00 0.01 0.00 54 1010.4
20260508041342 56 321 6.0 11.0 0.00 0.01 0.00 53 1010.4
20260508040846 57 317 8.0 12.0 0.00 0.01 0.00 49 1010.3
20260508040330 57 311 8.0 12.0 0.00 0.01 0.00 50 1010.2
20260508035853 57 330 6.0 12.0 0.00 0.01 0.00 50 1010.1
20260508035336 57 311 5.0 10.0 0.00 0.01 0.01 50 1010.1
20260508034824 57 306 6.0 10.0 0.00 0.01 0.01 50 1010.0
20260508034329 57 304 4.0 6.0 0.00 0.01 0.01 51 1009.9
20260508033835 57 286 4.0 6.0 0.00 0.01 0.01 51 1009.8
20260508033322 57 296 4.0 5.0 0.00 0.01 0.01 51 1009.8
20260508032829 56 285 3.0 5.0 0.00 0.01 0.01 52 1009.7
20260508032332 56 299 3.0 5.0 0.00 0.01 0.01 52 1009.7
20260508031837 56 273 2.0 3.0 0.00 0.01 0.01 52 1009.6
20260508031323 56 273 2.0 3.0 0.00 0.01 0.01 53 1009.7
20260508030831 56 273 0.0 3.0 0.00 0.01 0.01 53 1009.7
20260508030336 57 273 2.0 3.0 0.00 0.01 0.01 51 1009.6
20260508025840 57 273 2.0 4.0 0.00 0.01 0.01 51 1009.6
20260508025347 58 273 3.0 4.0 0.00 0.01 0.01 50 1009.6
20260508024831 58 289 2.0 4.0 0.00 0.01 0.01 49 1009.6
20260508024339 58 286 3.0 5.0 0.00 0.01 0.01 48 1009.5
20260508023903 58 298 3.0 5.0 0.00 0.01 0.01 49 1009.5
20260508023327 58 286 3.0 5.0 0.00 0.01 0.01 49 1009.5
20260508022832 58 265 3.0 5.0 0.00 0.01 0.01 49 1009.5
20260508022335 59 283 3.0 5.0 0.00 0.01 0.01 48 1009.4
20260508021840 58 279 3.0 5.0 0.00 0.01 0.01 48 1009.4
20260508021324 58 307 2.0 3.0 0.00 0.01 0.01 49 1009.4
20260508020827 58 307 2.0 3.0 0.00 0.01 0.01 50 1009.4
20260508020335 58 307 2.0 3.0 0.00 0.01 0.01 50 1009.2
20260508015840 58 307 2.0 3.0 0.00 0.01 0.01 50 1009.2
20260508015347 58 307 2.0 3.0 0.00 0.01 0.01 50 1009.3
20260508014831 58 307 2.0 3.0 0.00 0.01 0.01 51 1009.3
20260508014335 58 307 2.0 3.0 0.00 0.01 0.01 51 1009.2
20260508013823 58 315 2.0 5.0 0.00 0.01 0.01 51 1009.1
20260508013328 58 322 3.0 5.0 0.00 0.01 0.01 51 1009.0
20260508012832 58 313 3.0 4.0 0.00 0.01 0.01 51 1009.0
20260508012336 59 314 3.0 4.0 0.00 0.01 0.01 50 1008.8
20260508011840 59 314 2.0 3.0 0.00 0.01 0.01 50 1008.8
20260508011345 59 314 2.0 4.0 0.00 0.01 0.01 50 1008.7
20260508010828 59 314 2.0 4.0 0.00 0.01 0.01 50 1008.6
20260508010333 59 311 3.0 4.0 0.00 0.01 0.01 51 1008.6
20260508005838 60 311 3.0 4.0 0.00 0.01 0.01 50 1008.4
20260508005325 61 311 3.0 5.0 0.00 0.01 0.01 47 1008.4
20260508004833 61 309 3.0 6.0 0.00 0.01 0.01 46 1008.2
20260508004338 62 292 4.0 9.0 0.00 0.01 0.01 45 1008.2
20260508003842 61 311 4.0 10.0 0.00 0.01 0.01 46 1008.2
20260508003326 61 305 4.0 9.0 0.00 0.01 0.01 47 1008.1
20260508002854 61 313 5.0 9.0 0.00 0.01 0.01 47 1007.9
20260508002340 61 302 4.0 11.0 0.00 0.01 0.01 47 1007.8
20260508001824 61 306 6.0 11.0 0.00 0.01 0.01 48 1007.8
20260508001329 61 310 4.0 6.0 0.00 0.01 0.01 47 1007.8
20260508000854 62 312 2.0 6.0 0.00 0.01 0.01 48 1007.7
20260508000337 62 309 4.0 7.0 0.00 0.01 0.01 44 1007.6
20260507235824 63 313 5.0 8.0 0.00 0.01 0.01 45 1007.6
20260507235351 63 293 4.0 8.0 0.00 0.01 0.01 43 1007.5
20260507234854 63 307 4.0 9.0 0.00 0.01 0.01 46 1007.5
20260507234340 64 334 5.0 10.0 0.00 0.01 0.01 45 1007.4
20260507233825 64 310 5.0 10.0 0.00 0.01 0.01 44 1007.3
20260507233349 64 323 6.0 10.0 0.00 0.01 0.01 44 1007.4
20260507232833 64 313 5.0 9.0 0.00 0.01 0.01 44 1007.2
20260507232355 64 313 5.0 11.0 0.00 0.01 0.01 43 1007.2
20260507231842 65 302 4.0 11.0 0.00 0.01 0.01 42 1007.1
20260507231327 65 301 8.0 13.0 0.00 0.01 0.01 42 1006.9
20260507230850 65 302 10.0 14.0 0.00 0.01 0.01 41 1007.0
20260507230337 66 329 6.0 15.0 0.00 0.01 0.01 42 1007.0
20260507225841 66 331 11.0 17.0 0.00 0.01 0.01 41 1006.9
20260507225325 67 323 9.0 17.0 0.00 0.01 0.01 39 1006.8
20260507224830 67 323 9.0 15.0 0.00 0.01 0.01 42 1006.6
20260507224337 67 315 8.0 13.0 0.00 0.01 0.01 40 1006.6
20260507223823 68 319 8.0 16.0 0.00 0.01 0.01 41 1006.6
20260507223331 68 339 10.0 14.0 0.00 0.01 0.01 38 1006.5
20260507222836 67 335 9.0 13.0 0.00 0.01 0.01 41 1006.5
20260507222340 66 290 9.0 15.0 0.00 0.01 0.01 42 1006.5
20260507221843 66 327 10.0 15.0 0.00 0.01 0.01 41 1006.5
20260507221329 68 315 8.0 14.0 0.00 0.01 0.01 39 1006.6
20260507220854 69 320 7.0 13.0 0.00 0.01 0.01 40 1006.4
20260507220338 70 324 9.0 13.0 0.00 0.01 0.01 38 1006.2
20260507215901 70 15 8.0 13.0 0.00 0.01 0.01 37 1006.2
20260507215326 70 337 9.0 14.0 0.00 0.02 0.01 38 1006.1
20260507214834 70 329 12.0 14.0 0.00 0.02 0.01 37 1006.0
20260507214323 70 321 6.0 10.0 0.00 0.02 0.01 40 1006.1
20260507213830 69 311 5.0 7.0 0.00 0.02 0.01 37 1006.1
20260507213355 67 355 3.0 10.0 0.00 0.02 0.01 44 1006.1
20260507212839 68 315 4.0 12.0 0.00 0.02 0.01 40 1006.1
20260507212342 70 315 9.0 11.0 0.00 0.02 0.01 36 1006.1
20260507211827 70 15 2.0 6.0 0.00 0.02 0.01 32 1006.0
20260507211331 70 302 3.0 7.0 0.00 0.02 0.01 34 1006.1
20260507210856 70 257 2.0 7.0 0.00 0.02 0.01 33 1006.1
20260507210340 69 298 3.0 8.0 0.00 0.02 0.01 42 1006.1
20260507205903 69 306 6.0 8.0 0.00 0.02 0.01 40 1006.1
20260507205326 70 10 3.0 5.0 0.00 0.03 0.01 34 1006.1
20260507204850 70 263 2.0 13.0 0.00 0.03 0.01 35 1006.2
20260507204334 70 244 4.0 13.0 0.00 0.03 0.01 36 1006.3
20260507203839 70 39 4.0 9.0 0.00 0.03 0.01 35 1006.4
20260507203326 70 342 5.0 10.0 0.00 0.03 0.01 35 1006.5
20260507202834 70 330 6.0 10.0 0.00 0.03 0.01 37 1006.6
20260507202337 70 94 3.0 11.0 0.00 0.03 0.01 36 1006.6
20260507201842 70 29 6.0 11.0 0.00 0.03 0.01 37 1006.6
20260507201326 69 339 3.0 7.0 0.00 0.03 0.01 34 1006.6
20260507200831 69 348 4.0 7.0 0.00 0.03 0.01 37 1006.6
20260507200337 69 288 2.0 6.0 0.00 0.03 0.01 37 1006.7
20260507195825 69 306 2.0 8.0 0.00 0.03 0.01 42 1006.6
20260507195329 68 250 3.0 10.0 0.00 0.03 0.01 37 1006.6
20260507194833 68 255 5.0 10.0 0.00 0.03 0.01 36 1006.8
20260507194338 69 289 4.0 8.0 0.00 0.03 0.01 38 1006.9
20260507193825 68 288 5.0 12.0 0.00 0.03 0.01 39 1006.9
20260507193331 68 338 5.0 12.0 0.00 0.03 0.01 42 1006.9
20260507192858 68 327 2.0 13.0 0.00 0.03 0.01 38 1007.1
20260507192401 68 344 3.0 13.0 0.00 0.03 0.01 41 1007.2
20260507191826 68 186 1.0 9.0 0.00 0.03 0.01 39 1007.3
20260507191334 68 274 4.0 9.0 0.00 0.03 0.01 39 1007.3
20260507190839 68 258 5.0 10.0 0.00 0.03 0.01 37 1007.4
20260507190403 68 307 5.0 11.0 0.00 0.03 0.01 41 1007.5
20260507185847 68 325 5.0 11.0 0.00 0.03 0.01 42 1007.4
20260507185328 68 40 5.0 10.0 0.00 0.03 0.01 40 1007.6
20260507184836 68 47 2.0 9.0 0.00 0.03 0.01 38 1007.5
20260507184340 67 355 4.0 9.0 0.00 0.03 0.01 40 1007.7
20260507183825 67 294 4.0 11.0 0.00 0.03 0.01 44 1007.6
20260507183332 67 360 4.0 11.0 0.00 0.03 0.01 38 1007.8
20260507182840 66 271 2.0 5.0 0.00 0.03 0.01 41 1007.8
20260507182404 66 302 2.0 10.0 0.00 0.03 0.01 38 1007.9
20260507181827 66 348 4.0 10.0 0.00 0.03 0.01 45 1008.1
20260507181332 67 326 2.0 6.0 0.00 0.03 0.01 45 1008.2
20260507180836 67 254 2.0 6.0 0.00 0.03 0.01 44 1008.2
20260507180341 66 281 2.0 10.0 0.00 0.03 0.01 46 1008.2
20260507175826 66 59 3.0 10.0 0.00 0.03 0.01 41 1008.3
20260507175329 65 323 2.0 6.0 0.00 0.04 0.01 43 1008.4
20260507174835 65 144 3.0 7.0 0.00 0.04 0.01 41 1008.4
20260507174322 65 355 3.0 11.0 0.00 0.04 0.01 41 1008.7
20260507173834 65 287 3.0 11.0 0.00 0.04 0.01 43 1008.8
20260507173339 65 312 4.0 7.0 0.00 0.04 0.01 45 1008.7
20260507172843 65 329 5.0 7.0 0.00 0.04 0.01 45 1008.8
20260507172327 64 346 3.0 9.0 0.00 0.04 0.01 45 1009.0
20260507171830 64 57 4.0 10.0 0.00 0.04 0.01 42 1009.2
20260507171338 64 325 5.0 10.0 0.00 0.04 0.01 47 1009.2
20260507170902 64 311 2.0 5.0 0.00 0.04 0.01 47 1009.2
20260507170326 63 24 1.0 11.0 0.00 0.04 0.01 44 1009.2
20260507165851 63 301 4.0 11.0 0.00 0.04 0.01 45 1009.3
20260507165333 63 36 2.0 5.0 0.00 0.04 0.01 44 1009.4
20260507164858 63 333 2.0 10.0 0.00 0.04 0.01 45 1009.6
20260507164401 62 223 3.0 12.0 0.00 0.04 0.01 44 1009.7
20260507163828 62 299 4.0 10.0 0.00 0.04 0.01 48 1009.7
20260507163352 62 347 2.0 12.0 0.00 0.04 0.01 46 1009.8
20260507162836 62 16 4.0 10.0 0.00 0.04 0.01 48 1009.9
20260507162323 63 350 5.0 9.0 0.00 0.04 0.01 47 1010.1
20260507161827 62 355 3.0 10.0 0.00 0.04 0.01 46 1010.1
20260507161334 62 346 5.0 10.0 0.00 0.04 0.01 49 1010.1
20260507160902 62 292 3.0 10.0 0.00 0.04 0.01 44 1010.1
20260507160326 61 292 5.0 12.0 0.00 0.04 0.01 49 1010.2
20260507155830 61 296 6.0 12.0 0.00 0.04 0.01 49 1010.3
20260507155332 61 360 5.0 12.0 0.00 0.04 0.01 46 1010.4
20260507154840 61 5 6.0 14.0 0.00 0.04 0.01 50 1010.4
20260507154325 61 337 4.0 14.0 0.00 0.04 0.01 48 1010.4
20260507153830 61 287 3.0 9.0 0.00 0.04 0.01 48 1010.4
20260507153334 60 82 4.0 11.0 0.00 0.04 0.01 49 1010.5
20260507152826 60 306 4.0 13.0 0.00 0.04 0.01 45 1010.6
20260507152329 60 281 6.0 13.0 0.00 0.04 0.01 46 1010.7
20260507151834 60 321 5.0 10.0 0.00 0.04 0.01 48 1010.7
20260507151338 59 338 4.0 7.0 0.00 0.04 0.01 51 1010.8
20260507150843 59 319 5.0 7.0 0.00 0.04 0.01 51 1010.8
20260507150347 59 303 4.0 7.0 0.00 0.04 0.01 49 1011.1
20260507145831 58 337 4.0 8.0 0.00 0.04 0.01 51 1011.1
20260507145335 58 344 5.0 9.0 0.00 0.09 0.01 50 1011.3
20260507144839 58 323 4.0 8.0 0.00 0.09 0.01 47 1011.4
20260507144404 58 13 4.0 8.0 0.00 0.09 0.01 47 1011.4
20260507143828 58 347 5.0 11.0 0.00 0.09 0.01 47 1011.4
20260507143332 58 342 5.0 11.0 0.00 0.09 0.01 50 1011.3
20260507142844 58 321 6.0 10.0 0.00 0.09 0.01 50 1011.4
20260507142347 59 355 6.0 10.0 0.00 0.09 0.01 54 1011.4
20260507141830 58 329 5.0 9.0 0.00 0.09 0.01 53 1011.3
20260507141335 57 322 5.0 10.0 0.00 0.09 0.01 53 1011.5
20260507140900 57 270 3.0 10.0 0.00 0.09 0.01 53 1011.5
20260507140323 57 331 6.0 9.0 0.00 0.09 0.01 56 1011.6
20260507135831 57 336 5.0 9.0 0.00 0.09 0.01 55 1011.7
20260507135334 57 313 5.0 8.0 0.00 0.16 0.01 59 1011.7
20260507134839 56 319 5.0 7.0 0.00 0.16 0.01 56 1011.8
20260507134324 56 311 5.0 8.0 0.00 0.16 0.01 55 1011.9
20260507133828 57 306 5.0 8.0 0.00 0.16 0.01 58 1012.1
20260507133333 56 316 5.0 7.0 0.00 0.16 0.01 57 1011.9
20260507132841 56 314 5.0 6.0 0.00 0.16 0.01 58 1012.2
20260507132345 56 327 3.0 6.0 0.00 0.16 0.01 58 1012.1
20260507131829 56 19 3.0 9.0 0.00 0.16 0.01 58 1012.1
20260507131333 55 338 5.0 9.0 0.00 0.16 0.01 57 1012.2